User: anonymous   Login
Location: Bagnara
(41.0500°N, 14.7833°E)
Time: 05:41:32
(UTC+00:00)
Language:

NOSS 2-2 (D) - Orbit

View from above orbital plane
View from above orbital plane
View from above satellite
View from above satellite

Ground track
Ground track

The orbit data is extracted from the following two-line orbital elements,

1 21808U 91076D   21221.81585803 0.00000600  00000-0  94196-4 0    00
2 21808  63.3164 137.7332 0872555  44.1889 315.8111 13.41571688    00
Epoch (UTC): 09 August 2021 19:34:50
Eccentricity: 0.0872555
inclination: 63.3164°
perigee height: 450 km
apogee height: 1756 km
right ascension of ascending node: 137.7332°
argument of perigee: 44.1889°
revolutions per day: 13.41571688
mean anomaly at epoch: 315.8111°
orbit number at epoch: 0

The dashed part of the orbit path shows where the satellite is in the earth's shadow,  

DLR